Wind_Speed
69 69 70 70 71 71 72 72 72 72 72 72 72 72 72 72 72 72 72 72 72 72 72 72 72 72 72 72 73 74 75 75 76 76 76 76 76 76 76 75 76 76 76 76 76 77 77 77 77 77 77 77 78 78 78 78 78 76 74 73 74 77 81 87 91 90 88 88 88 88 88 87 86 85 82 79 77 77 77 81 84 82 81 78 77 77 74 72
70 70 71 71 72 72 72 73 73 73 72 72 72 72 72 72 73 73 73 73 73 74 74 74 73 73 73 73 73 73 74 75 76 76 76 76 76 76 76 75 75 76 76 76 76 76 76 75 75 75 75 76 76 76 75 75 75 72 71 69 71 77 82 86 87 86 85 85 85 85 85 85 85 84 81 78 76 76 77 81 84 82 81 79 78 77 74 73
71 72 72 72 72 73 73 73 73 73 73 72 72 72 72 73 73 73 74 74 75 75 76 76 75 74 73 73 73 73 73 74 75 75 75 76 76 76 76 76 76 76 77 76 77 76 76 75 75 75 75 75 75 75 74 74 72 71 69 67 71 78 82 84 84 83 81 80 80 81 81 81 81 81 78 75 74 75 76 80 82 81 80 78 77 77 74 73
72 72 72 72 73 73 73 73 73 73 73 72 73 73 73 74 74 75 75 76 76 77 77 76 75 74 73 72 72 72 73 73 74 75 75 75 75 75 76 76 77 77 78 78 78 78 77 76 76 76 75 76 76 75 74 74 72 70 68 68 73 79 80 83 83 80 78 76 77 77 78 78 78 77 75 73 73 73 75 79 80 78 77 76 76 75 74 73
71 72 72 73 73 73 74 74 74 74 74 74 74 75 75 76 76 77 77 77 77 77 76 75 73 71 70 70 71 71 71 73 74 74 74 74 75 75 75 76 77 77 78 78 78 78 78 78 78 78 77 78 77 76 76 75 73 71 68 70 75 78 80 83 82 79 76 74 74 74 75 75 75 75 73 72 72 72 74 76 77 75 74 74 74 74 73 72
71 72 73 73 74 74 75 75 76 76 76 76 76 77 77 77 77 77 76 76 75 74 73 72 70 69 68 68 69 70 70 72 72 73 73 73 74 74 74 75 75 76 76 77 78 78 78 78 78 79 79 79 78 78 78 77 74 72 70 72 76 79 82 84 81 78 76 74 73 73 73 73 74 73 73 72 71 72 74 74 74 73 72 72 72 71 70 69
72 73 74 74 75 75 75 76 76 76 76 76 76 76 76 75 75 74 74 73 72 71 70 70 70 69 68 68 68 69 70 70 71 72 72 72 73 73 73 74 74 74 74 75 76 76 76 76 77 78 78 79 79 79 79 78 75 73 73 74 77 80 83 84 80 78 76 74 72 72 72 72 72 73 73 73 71 72 72 70 71 71 70 69 70 69 68 68
72 73 73 73 74 74 74 73 73 73 73 73 73 73 73 73 72 72 71 71 71 70 71 71 70 70 69 69 69 70 70 70 70 71 71 72 72 72 72 72 72 72 73 73 73 73 74 74 75 75 76 77 77 78 78 77 75 74 75 76 78 81 84 84 80 79 77 74 73 72 73 73 73 74 75 73 71 71 69 68 69 70 69 69 69 69 68 67
70 70 70 70 70 70 70 70 70 70 70 70 70 70 70 70 70 70 70 70 70 71 71 71 71 70 70 69 70 71 70 69 70 70 70 71 71 71 70 70 71 71 71 71 71 71 71 71 72 72 73 74 74 74 75 74 73 73 75 77 79 81 84 84 80 79 77 76 74 73 73 73 74 75 75 73 71 70 68 67 70 70 69 69 68 68 67 66
66 66 66 65 65 65 65 65 66 66 67 68 68 69 69 69 69 69 69 69 70 70 71 71 70 70 70 70 70 70 70 69 69 69 69 70 70 69 69 69 69 69 69 68 68 68 68 68 68 68 69 70 70 71 72 72 72 73 74 75 77 79 82 81 79 78 77 76 73 72 72 72 73 74 74 73 71 70 68 67 68 69 69 69 68 67 67 65
62 61 61 61 61 61 61 61 62 62 63 64 65 66 67 68 68 69 69 69 69 69 70 70 70 69 70 70 70 69 69 69 69 69 69 69 68 68 67 68 68 68 67 67 66 65 65 65 65 64 65 67 68 69 69 70 71 71 71 72 73 77 79 79 78 77 77 75 72 71 70 70 72 73 73 73 70 69 68 66 67 68 68 68 68 67 66 65
59 59 59 59 59 59 59 59 59 59 59 60 60 61 62 63 65 66 67 68 68 69 69 69 68 68 69 69 69 68 68 69 68 68 68 68 68 67 66 66 67 66 65 65 64 63 62 62 62 61 62 64 65 65 66 67 68 68 68 69 71 74 76 76 76 76 75 73 71 71 69 70 73 74 73 74 70 68 67 66 65 66 67 68 68 68 67 66
59 60 60 60 61 61 61 61 61 61 61 60 60 60 60 60 61 63 64 65 66 67 68 68 68 68 68 69 68 68 67 67 67 67 66 66 66 65 64 65 65 64 64 62 62 61 60 59 58 58 59 60 61 62 64 64 65 66 67 67 69 71 71 72 73 72 71 70 71 71 68 70 74 74 73 73 69 66 65 65 63 64 66 68 68 68 67 65
60 61 62 63 63 64 64 65 65 64 64 63 63 63 63 62 62 62 62 63 64 65 65 65 66 67 68 68 67 67 66 65 66 65 65 65 65 64 62 63 63 62 62 61 60 60 58 57 56 56 56 57 58 59 61 61 61 62 64 64 66 67 68 70 71 70 70 70 71 69 66 68 72 72 72 72 68 64 63 63 62 61 65 69 69 68 65 62
62 62 63 64 65 65 66 66 66 66 65 65 65 65 65 65 65 64 63 63 63 63 63 63 64 65 66 66 65 65 65 64 64 63 63 64 64 62 60 60 61 61 61 60 59 57 56 55 54 54 54 54 55 56 57 57 57 59 60 61 62 63 65 69 69 69 69 70 70 67 64 65 68 69 70 71 67 63 61 62 62 61 64 68 69 66 62 58
60 61 62 62 63 64 64 64 64 65 66 66 67 67 67 67 67 66 65 64 63 63 62 61 61 62 63 65 64 63 63 63 62 62 62 62 62 60 58 58 59 60 59 58 56 55 54 53 52 52 52 52 53 54 54 53 54 56 57 59 61 62 64 67 67 67 68 68 67 63 61 62 65 66 69 69 66 62 59 60 60 60 63 66 66 64 60 56
56 57 58 59 61 62 62 63 65 66 67 68 69 69 69 69 69 67 65 64 63 63 62 61 61 60 61 63 62 60 61 61 61 60 60 59 58 57 56 56 56 57 57 55 54 53 52 51 50 50 49 49 50 50 50 50 53 55 57 59 60 61 62 64 64 64 64 63 62 59 59 61 63 66 68 67 64 61 58 57 58 59 62 64 63 61 58 54
57 57 58 60 61 62 64 65 67 68 70 71 71 71 70 70 69 67 64 62 61 62 62 62 61 61 62 62 60 59 59 59 59 58 57 56 54 53 53 53 54 54 54 53 51 50 49 48 47 47 46 47 48 47 47 50 54 55 56 57 56 56 56 58 60 61 60 60 59 58 58 60 62 65 66 64 61 59 57 57 57 59 61 62 59 57 54 52
59 60 61 62 64 65 66 67 69 70 71 72 71 71 70 68 66 64 61 59 59 61 61 60 60 62 63 63 61 60 59 59 58 58 57 55 53 52 52 52 52 52 51 51 49 47 46 45 44 44 45 46 46 45 47 51 53 51 51 51 50 50 51 55 58 58 58 58 57 56 57 60 61 63 64 61 59 57 56 56 56 57 59 58 54 52 52 51
61 63 64 65 66 67 68 69 70 70 71 70 69 69 67 65 62 59 57 57 59 59 59 58 59 62 64 63 62 61 60 60 60 60 58 55 54 53 53 52 51 50 50 49 47 44 43 43 43 45 45 44 43 44 46 49 48 46 46 46 46 48 51 55 57 57 58 56 54 55 56 58 58 59 60 58 57 56 55 54 55 56 55 53 49 49 51 52
63 64 65 66 66 68 68 69 69 69 68 67 66 64 62 60 57 55 53 54 57 58 58 58 59 63 65 62 62 62 61 62 62 61 59 56 55 54 52 51 50 49 48 46 44 42 42 42 44 44 43 41 41 42 44 46 44 43 43 44 46 50 54 57 57 57 57 53 53 54 54 54 55 56 57 57 56 55 55 54 53 53 51 48 47 49 52 52
64 64 65 66 67 68 69 68 67 65 64 63 61 59 57 56 54 53 50 51 56 57 56 58 59 63 64 61 61 61 61 63 62 60 57 55 54 52 50 48 47 47 45 42 41 41 41 42 42 41 39 39 40 41 42 43 42 40 42 45 49 53 55 55 55 55 53 50 51 53 52 52 53 54 55 57 56 55 54 52 49 49 47 46 47 50 52 51
63 64 64 66 67 68 67 65 63 61 60 58 57 55 54 53 52 51 49 50 55 56 55 57 57 59 62 61 59 58 59 61 60 57 54 53 52 48 45 46 46 44 42 40 40 40 40 40 39 38 38 38 39 39 41 41 40 40 43 47 51 53 53 53 52 52 50 48 50 51 50 50 51 53 55 56 57 54 51 49 47 47 46 45 48 49 49 49
63 63 65 67 67 66 64 61 58 57 55 54 52 51 51 50 49 48 47 47 51 54 54 53 52 55 60 59 54 54 56 57 56 53 51 50 49 45 42 44 43 41 40 39 39 39 38 38 37 37 37 38 38 39 40 40 40 41 44 48 50 50 50 50 49 49 48 47 47 48 48 48 49 54 56 57 56 52 48 47 46 46 46 46 48 48 47 47
63 64 65 65 64 63 60 56 53 52 51 50 49 48 47 47 46 45 45 43 43 49 51 47 47 52 55 53 51 52 52 52 52 50 47 46 45 43 41 42 40 39 39 37 38 38 36 36 36 36 36 36 37 38 39 39 40 41 44 46 48 48 48 48 47 48 47 45 45 46 46 47 48 54 57 55 53 49 45 45 45 46 47 46 46 46 46 47
63 64 64 62 61 59 55 52 49 47 47 47 46 45 44 43 43 41 41 39 38 44 47 43 43 47 49 49 49 48 47 48 48 44 44 44 43 40 40 39 38 38 37 35 36 37 35 35 35 35 35 35 36 37 38 39 40 41 43 45 46 46 46 46 46 45 44 43 44 45 47 47 49 53 54 51 48 46 44 43 46 47 46 45 45 46 46 47
64 63 59 57 58 55 51 48 46 44 45 45 44 43 42 40 39 38 37 35 35 39 42 42 40 42 46 47 45 44 44 45 44 41 43 43 39 38 38 38 38 37 36 34 36 37 34 33 34 34 34 34 35 38 39 39 38 40 42 44 44 44 44 44 44 43 42 41 42 44 47 47 48 51 50 46 45 45 43 43 45 46 44 44 45 46 46 46
62 59 54 53 55 52 48 46 44 42 43 43 43 41 39 38 37 35 33 31 32 34 37 40 39 39 44 44 42 42 43 43 42 40 41 41 38 37 38 38 38 36 33 32 35 36 32 32 34 32 33 34 36 39 38 36 37 40 41 41 42 42 42 41 40 40 40 40 40 43 46 47 48 50 48 45 44 43 42 42 45 44 43 43 43 43 44 44
59 55 50 50 53 50 46 44 42 41 41 41 41 39 37 36 36 33 30 30 31 32 35 39 39 38 41 41 40 41 41 41 42 39 38 39 37 36 38 38 37 34 31 32 35 34 32 32 33 31 32 33 36 37 35 34 37 39 38 39 40 40 39 38 38 39 39 39 40 42 45 46 47 48 46 42 41 41 41 43 44 43 42 42 41 42 43 44
56 51 48 48 51 49 44 43 41 40 40 40 39 37 36 35 34 33 31 32 33 34 36 40 40 40 40 40 40 41 40 41 40 36 36 37 36 37 38 37 35 33 32 32 34 33 32 31 31 31 32 33 35 34 32 34 37 36 36 38 39 39 38 38 38 39 38 38 39 41 43 43 43 44 42 39 39 40 41 42 41 41 41 41 41 42 42 42
54 50 47 48 48 46 43 42 40 38 38 38 37 36 35 33 32 34 36 37 37 38 39 40 40 40 40 39 40 41 40 39 38 34 34 36 36 37 37 36 35 34 32 33 34 33 31 30 30 32 33 34 34 33 34 36 36 35 36 38 38 38 38 37 37 37 36 37 39 40 41 41 41 42 40 38 37 39 39 39 38 38 38 38 39 40 40 40
53 49 47 47 46 44 42 40 39 37 37 37 36 35 35 32 31 36 43 44 42 42 42 41 40 39 40 39 40 41 40 39 37 34 34 36 36 36 37 36 35 33 32 33 34 32 30 30 31 31 32 33 32 32 34 36 36 36 37 38 37 37 37 36 36 35 35 38 39 39 40 39 39 39 37 36 36 37 37 34 33 33 34 35 35 36 38 39
52 49 48 47 44 41 41 40 38 37 36 36 36 35 34 32 33 38 43 46 47 47 45 44 42 41 41 40 40 41 40 39 37 35 35 37 37 36 36 36 35 33 34 34 33 31 29 29 30 30 31 31 30 31 34 36 37 37 37 38 38 38 37 36 36 35 36 37 38 38 38 36 35 35 34 35 35 36 35 32 30 30 32 35 35 35 36 37
52 49 48 45 41 39 39 39 38 37 36 36 36 35 34 34 37 39 40 44 48 48 46 44 43 42 42 41 41 41 41 40 38 36 35 36 38 37 37 37 36 35 34 33 32 30 29 29 31 31 31 30 30 32 35 36 37 37 37 38 39 38 37 37 37 36 37 38 38 38 37 34 33 34 33 34 34 34 34 33 33 35 35 36 35 35 37 37
51 49 47 43 39 38 38 38 38 37 36 36 36 36 36 37 39 39 40 43 45 43 42 41 42 44 43 43 42 40 42 41 39 38 36 36 39 39 39 38 37 35 34 32 31 30 29 30 32 31 31 30 31 33 34 35 35 35 36 37 37 36 36 37 37 36 36 37 37 37 35 33 33 34 33 33 33 33 33 34 36 37 36 35 35 36 38 37
51 47 43 39 38 37 38 38 39 38 37 36 36 37 38 39 39 40 42 44 43 40 39 39 40 43 44 43 42 42 43 42 41 41 39 38 41 42 40 39 36 34 33 32 31 30 29 31 31 30 30 30 31 32 33 33 33 33 35 37 37 36 36 36 35 35 36 37 37 37 34 33 33 33 33 33 33 33 33 34 34 33 33 35 36 36 36 36
48 43 39 38 37 38 38 38 38 38 37 37 37 38 38 39 40 41 43 45 44 41 40 39 39 40 42 42 42 43 44 43 43 45 42 39 41 42 41 39 35 34 34 32 31 30 29 30 30 29 29 30 30 31 32 32 32 34 35 36 36 36 36 36 36 36 37 37 37 36 35 33 32 32 32 32 32 32 32 31 31 32 33 35 35 35 34 33
42 38 37 37 38 38 38 38 38 38 38 38 38 38 39 40 40 41 43 45 45 42 41 40 40 40 40 41 42 43 44 44 45 47 44 40 41 42 41 39 36 35 34 33 32 30 30 31 30 29 29 30 29 30 32 32 32 33 35 36 37 37 37 37 37 38 38 38 38 37 35 33 32 32 33 33 32 32 31 30 30 32 33 34 33 34 34 33
36 35 37 38 38 38 38 38 39 39 39 39 39 39 40 41 42 43 45 46 46 44 43 43 42 41 40 40 42 44 44 45 46 48 46 42 40 41 41 40 37 36 35 34 33 31 31 32 32 30 29 30 30 31 32 31 31 33 35 36 37 37 37 37 38 38 39 39 38 36 34 32 32 33 34 34 33 32 29 24 24 27 31 32 32 33 34 35
35 35 36 37 38 39 39 39 38 39 39 40 40 41 42 42 43 45 46 46 46 45 44 45 45 44 42 41 42 44 45 45 46 48 47 44 39 39 41 40 38 37 36 34 33 32 32 33 33 32 31 32 32 31 30 30 31 32 33 34 35 35 35 36 37 38 39 39 37 36 34 33 33 35 36 35 33 30 26 22 21 25 28 30 31 33 35 37
35 34 35 37 38 39 39 39 39 39 40 41 41 42 43 44 45 47 47 47 48 47 47 48 48 47 44 41 42 44 44 46 47 47 46 45 40 38 39 40 39 38 37 35 33 33 32 33 34 34 33 34 33 31 30 30 31 31 31 31 33 34 35 36 36 37 38 38 37 36 34 34 35 36 35 34 31 28 26 25 24 25 27 28 31 35 37 38
34 35 35 37 38 39 39 39 40 41 42 42 42 43 43 45 47 49 48 49 50 50 49 50 49 48 44 42 43 43 45 47 47 45 44 44 42 39 38 39 39 38 37 36 34 33 33 33 34 34 35 36 35 33 31 30 30 30 31 31 32 34 36 37 36 36 37 37 37 36 35 35 36 36 34 32 28 26 27 26 23 24 28 29 31 35 38 40
35 35 35 37 38 39 39 40 39 40 42 43 44 44 45 46 49 50 49 50 51 49 48 49 49 46 42 42 43 45 48 49 46 44 44 44 43 40 37 38 38 37 37 36 34 33 34 34 35 35 36 36 35 34 32 31 30 30 31 31 33 34 35 37 37 37 37 37 36 36 36 36 37 36 34 30 26 24 26 26 24 26 32 31 30 32 36 39
34 36 35 36 38 38 40 39 39 39 40 41 43 44 44 46 48 50 49 50 50 48 48 49 48 44 41 42 45 48 50 49 47 46 45 43 42 40 37 37 37 36 35 35 34 33 34 35 35 36 36 36 35 33 31 32 32 31 31 31 32 34 34 35 36 37 37 37 36 36 36 38 39 37 33 31 29 27 29 30 27 27 32 35 35 34 35 38
33 35 36 36 36 37 37 37 36 36 36 37 39 41 42 43 44 46 46 46 46 47 49 50 47 43 42 43 47 50 50 49 48 47 46 44 43 40 38 37 37 35 34 34 34 35 35 35 35 36 36 36 35 34 33 33 34 33 32 32 33 33 34 34 35 35 36 37 37 36 36 38 39 37 33 33 34 33 33 34 32 30 31 36 41 42 39 38
32 34 34 34 34 34 34 33 32 32 32 33 35 37 39 40 40 41 40 38 40 44 48 49 48 46 46 47 49 52 51 48 49 50 49 46 44 41 39 39 39 37 35 35 36 36 36 36 36 37 37 37 37 37 36 35 35 34 34 35 34 34 34 34 34 34 34 35 36 37 38 38 39 38 35 35 37 37 36 35 34 33 34 35 40 45 43 39
31 31 31 31 30 30 30 30 29 29 29 30 31 33 35 36 36 37 36 36 38 42 44 46 47 49 50 51 53 54 52 50 51 53 52 49 45 43 42 42 42 41 39 38 37 37 38 38 37 37 37 37 38 38 36 36 35 35 35 35 36 35 35 35 35 35 35 35 36 38 39 39 40 39 37 38 40 42 41 39 36 36 37 38 39 42 43 41
29 29 28 28 28 27 27 26 26 25 25 26 28 29 30 31 33 33 34 35 38 40 40 42 44 47 50 53 56 56 54 53 54 55 54 51 48 47 46 46 45 44 43 42 40 40 40 39 39 38 37 37 37 38 38 38 37 37 37 36 37 37 37 37 37 37 37 37 38 39 40 41 42 41 39 40 43 45 44 43 40 37 38 41 43 42 43 44
27 27 27 26 26 26 25 24 23 22 22 22 24 24 25 27 29 30 32 34 36 37 38 39 42 45 49 53 56 56 56 56 56 56 56 54 52 51 50 49 47 45 45 44 44 43 42 41 39 38 38 39 39 39 40 39 39 40 40 39 38 39 39 39 39 39 39 39 40 40 40 40 41 41 40 39 42 46 47 45 43 41 40 42 45 45 45 45
25 26 27 26 25 25 24 22 21 20 19 19 20 21 21 22 24 27 29 32 33 34 35 37 39 43 47 52 55 57 57 57 57 57 57 56 55 55 54 53 51 48 47 46 46 46 45 43 41 40 41 42 41 41 43 42 40 41 42 42 42 42 42 42 41 40 39 39 40 41 41 41 41 42 42 41 41 45 47 46 44 46 47 45 45 46 46 45
24 25 26 26 24 23 22 22 21 19 17 16 17 17 18 18 20 22 25 28 30 31 32 34 36 40 45 49 52 54 56 58 58 58 57 56 56 56 56 56 55 52 51 50 50 50 49 46 44 43 44 44 43 42 44 46 47 47 46 46 46 46 46 45 44 42 41 40 40 40 40 40 42 44 45 45 43 43 46 48 46 46 47 47 47 48 49 49
23 23 23 23 23 22 22 21 19 18 16 14 14 14 14 14 16 18 21 24 27 30 32 34 37 40 43 46 48 50 52 55 57 57 57 56 56 56 57 57 56 54 55 55 55 53 51 48 48 48 48 49 49 48 48 50 54 54 51 48 48 49 48 47 46 44 43 42 41 42 41 40 43 44 43 43 42 42 47 52 52 48 46 46 48 50 51 52
Wind_Direction
259 260 261 261 262 262 263 264 264 265 265 264 264 263 263 263 263 263 263 264 264 265 265 266 266 266 266 265 264 263 263 262 262 262 262 262 261 261 261 261 261 261 261 260 260 260 260 260 260 260 260 260 259 259 259 259 259 259 259 258 258 258 256 256 256 257 257 258 258 259 260 260 261 261 261 261 261 261 262 262 263 263 264 264 264 264 264 266
259 260 261 262 262 263 264 265 265 265 265 265 264 264 263 263 263 263 264 264 265 266 266 267 267 267 266 266 265 264 263 263 262 262 262 262 261 261 261 261 261 261 261 260 260 260 260 260 260 260 260 260 259 259 259 259 259 259 258 258 257 257 256 256 256 257 257 258 259 260 260 261 261 261 261 261 261 261 260 261 261 262 263 263 264 265 265 265
259 260 261 262 262 263 264 265 265 265 265 264 264 264 263 263 263 264 264 265 266 267 267 268 268 267 266 266 265 264 264 263 263 263 262 262 262 261 261 261 261 260 260 260 260 260 259 260 260 260 259 260 259 259 259 259 258 258 257 257 256 255 256 256 257 257 257 258 259 260 260 261 261 261 261 261 261 260 259 260 260 261 263 263 264 265 265 265
259 260 261 262 263 264 265 265 265 265 265 264 264 264 264 264 264 265 265 266 267 267 268 268 267 267 266 266 265 265 264 264 264 263 263 263 262 262 262 262 261 261 261 260 260 260 260 260 259 259 259 259 259 259 258 258 257 256 256 255 255 255 256 257 257 257 258 258 259 259 260 260 261 261 260 259 259 258 259 260 261 262 263 264 264 264 265 265
259 260 261 262 263 264 264 265 265 265 265 265 265 265 265 265 266 266 266 267 268 268 268 267 267 266 266 266 266 265 265 264 264 264 264 264 264 263 263 263 262 262 261 261 261 261 260 260 260 259 259 259 258 258 258 257 257 256 255 254 254 255 256 256 257 258 258 258 258 259 260 260 261 261 260 258 258 258 258 260 261 262 263 263 264 264 264 265
260 261 262 263 263 264 265 265 265 266 266 266 266 266 266 267 267 267 267 267 267 267 267 267 267 266 266 266 265 265 265 265 265 265 265 265 265 265 264 264 264 263 263 263 262 262 261 261 260 260 259 259 258 258 257 257 257 256 255 254 255 255 255 256 257 258 258 258 258 258 259 260 260 260 260 259 257 257 258 259 262 263 263 264 264 264 264 264
262 263 263 264 264 264 265 265 266 266 266 266 266 266 267 267 267 267 267 267 266 266 266 267 267 267 267 267 266 266 266 266 266 266 267 266 266 266 266 265 265 265 264 264 264 263 262 262 261 260 259 259 258 257 257 257 256 256 255 254 254 255 255 256 256 257 257 258 258 258 259 259 259 260 259 259 257 257 258 260 262 263 263 263 263 263 264 264
264 264 264 265 265 265 265 265 266 266 266 266 266 266 266 266 266 266 266 266 266 265 266 266 266 267 267 267 267 267 267 267 267 268 268 268 267 267 267 267 267 266 266 265 265 264 263 263 261 261 260 259 258 258 258 257 256 255 254 253 253 254 255 255 256 256 257 257 257 257 257 258 258 258 257 258 258 258 259 260 260 261 262 262 262 262 263 263
264 264 265 265 265 265 265 265 265 265 265 265 265 265 265 265 265 265 265 265 265 265 265 266 266 267 267 267 267 267 268 268 268 268 269 269 269 269 269 268 268 267 267 266 266 265 264 263 262 261 261 260 259 258 258 257 255 254 253 252 252 254 255 256 256 256 257 256 256 256 257 257 257 257 257 257 257 258 257 258 259 260 261 261 262 262 263 263
264 264 265 265 265 265 265 266 266 266 266 265 265 265 264 264 264 264 264 264 264 264 265 265 266 266 267 267 267 267 268 268 268 268 269 269 269 269 269 269 269 268 268 267 267 266 265 264 263 262 261 260 259 257 256 256 254 252 252 252 252 254 255 256 256 256 256 256 256 256 256 257 257 257 257 256 256 256 256 257 258 260 260 261 261 262 262 262
264 264 264 264 265 265 265 265 265 266 266 266 266 266 265 265 265 264 264 263 263 264 264 264 265 265 266 266 266 267 268 268 268 268 269 269 270 270 270 270 270 269 269 268 267 267 266 264 263 262 260 259 258 257 256 254 253 252 252 252 252 253 253 254 254 254 254 254 254 254 255 255 256 255 255 255 254 255 256 256 257 259 259 259 260 260 261 260
263 263 263 263 263 263 263 263 264 265 266 266 267 267 267 267 267 266 265 264 264 264 264 264 264 264 265 265 265 266 267 267 268 269 269 269 269 270 270 270 270 270 269 269 268 267 266 265 263 262 260 258 257 256 255 253 252 252 251 250 250 251 252 253 254 254 254 253 253 252 253 253 253 253 254 254 253 254 255 255 256 258 259 259 258 259 259 259
262 262 262 262 261 261 262 263 264 265 266 267 268 268 269 270 270 269 267 266 265 265 264 264 264 264 264 265 265 266 266 267 268 268 269 269 269 270 270 270 270 270 270 269 269 268 266 265 263 261 259 258 257 255 254 252 251 250 249 248 249 250 251 252 252 252 252 252 251 251 251 252 253 254 254 254 253 253 254 255 256 257 258 258 257 257 257 258
263 263 263 263 263 263 263 264 265 266 267 268 269 269 270 271 272 271 270 268 266 265 265 265 265 264 264 264 265 266 266 266 267 268 269 269 269 269 270 270 270 270 270 269 268 267 266 264 263 261 259 258 256 255 254 252 251 250 249 247 248 249 249 250 249 250 249 249 249 249 249 251 253 254 254 254 253 252 253 254 254 255 257 257 256 256 257 258
264 264 265 265 265 265 265 265 266 266 267 268 269 270 271 272 272 272 271 269 267 265 265 265 264 264 264 265 264 265 266 266 267 268 268 269 269 270 270 270 271 270 269 269 268 268 267 265 263 261 259 257 256 254 253 252 250 249 247 246 246 247 247 248 248 248 248 247 248 248 247 249 252 253 253 253 253 251 251 253 253 253 255 256 257 257 257 258
266 266 266 267 267 267 267 267 267 267 268 269 270 271 272 273 273 273 272 269 267 264 263 263 263 264 264 264 264 265 266 266 266 267 268 269 270 271 270 270 269 269 269 269 268 267 266 265 263 261 259 257 255 253 251 250 249 247 245 243 243 243 244 246 247 247 247 248 248 248 247 248 250 252 252 253 253 251 250 251 252 252 254 256 257 257 257 258
268 268 269 269 269 270 270 269 269 270 270 271 272 272 273 273 273 273 271 268 266 263 262 261 262 262 263 264 264 264 265 266 266 267 268 269 270 271 270 269 268 268 268 268 268 266 265 264 262 260 258 256 253 251 249 247 245 243 241 240 241 242 244 246 247 247 247 248 248 246 245 246 247 249 251 252 252 251 249 249 250 250 252 254 256 258 259 259
270 271 272 272 272 272 272 272 272 272 272 273 273 273 273 273 273 272 270 267 265 263 261 260 260 262 262 263 264 264 264 265 266 267 267 268 269 270 270 269 268 268 268 268 267 266 265 263 262 259 256 253 250 248 246 244 242 241 241 242 243 244 245 247 247 247 246 246 246 245 244 244 245 247 250 251 251 251 248 247 248 249 251 253 256 260 261 259
272 273 274 274 274 274 274 274 274 274 275 274 274 273 273 273 272 271 268 266 264 262 261 260 260 261 261 262 263 263 264 265 266 267 267 268 268 269 270 269 269 268 268 267 266 265 264 262 259 256 253 250 248 246 244 244 243 243 244 244 244 244 244 245 245 245 245 244 244 244 243 243 244 247 250 250 250 250 248 247 247 248 250 253 256 259 260 258
272 273 274 275 275 276 276 276 277 277 276 275 274 274 273 273 271 269 267 265 264 263 262 261 260 261 261 261 262 263 264 265 266 267 267 268 269 269 269 269 269 268 267 266 266 264 262 259 255 252 250 249 247 246 245 245 245 244 244 244 242 241 240 241 242 242 242 242 242 242 243 244 245 247 249 250 249 249 248 246 246 247 250 253 255 256 256 255
273 274 275 276 276 277 278 278 278 278 277 276 275 274 273 272 269 267 265 264 263 262 261 260 260 260 260 260 262 263 264 265 266 266 267 268 268 269 269 269 269 267 265 265 264 261 259 255 252 251 250 249 247 246 246 246 245 244 243 242 240 239 238 239 240 241 242 241 242 242 242 244 245 245 247 248 247 247 246 245 246 248 250 253 252 251 252 254
273 274 275 277 278 279 280 280 279 278 276 275 274 273 271 270 268 266 264 262 261 260 259 259 258 259 260 260 260 261 263 264 265 266 267 268 268 267 268 267 266 264 263 262 261 259 256 254 253 252 252 251 249 247 247 247 245 243 241 240 238 237 238 239 240 242 242 241 241 242 241 242 244 244 244 246 246 245 246 246 247 249 250 250 249 248 251 253
273 274 276 278 280 281 280 280 278 277 275 274 273 271 270 269 268 267 264 261 260 259 257 257 257 259 260 258 258 260 261 262 264 265 267 267 267 266 265 264 262 261 260 259 258 257 255 254 253 252 251 249 248 246 246 245 243 240 239 238 237 238 238 239 240 242 242 240 241 242 241 241 242 243 243 243 244 244 246 247 247 247 247 246 246 247 250 252
273 275 277 279 281 281 280 279 278 276 274 272 271 270 270 270 269 268 265 261 260 260 257 256 258 258 258 258 258 258 259 260 263 264 265 265 265 264 261 259 259 258 256 256 257 255 253 253 252 250 249 248 246 245 243 242 240 238 237 238 238 239 239 239 239 240 240 239 239 241 242 241 241 243 243 242 243 244 244 246 246 245 244 243 245 246 248 249
273 276 278 281 281 281 280 279 276 274 272 270 270 270 270 271 270 269 265 261 258 258 257 255 255 255 256 258 257 255 257 260 261 262 262 262 261 259 257 256 256 254 253 254 256 255 252 251 250 248 247 246 245 243 242 240 237 236 236 237 238 238 238 238 238 238 239 237 237 238 239 239 238 241 243 243 245 245 243 244 244 243 243 243 244 246 246 246
274 277 280 282 281 281 280 278 275 273 271 271 271 271 271 271 270 267 263 258 252 253 255 252 250 253 255 255 254 255 256 257 258 259 259 257 255 256 255 253 252 251 251 253 254 253 250 249 249 247 246 244 243 241 239 237 235 235 235 236 237 237 237 238 237 237 237 237 237 236 236 236 236 239 243 244 245 245 243 241 242 242 243 243 243 243 244 244
276 278 280 282 281 281 280 277 274 271 271 271 271 272 273 272 267 262 259 255 248 249 254 252 248 250 253 253 253 253 252 253 255 254 254 254 253 253 251 250 248 247 249 251 252 251 248 248 248 245 243 241 240 239 237 236 234 234 235 235 236 236 236 237 237 236 235 235 235 236 236 235 236 238 240 241 242 243 242 240 241 241 242 242 241 242 244 246
276 278 281 282 281 280 279 275 272 271 271 271 271 272 273 270 263 257 254 250 246 247 252 253 249 247 251 253 252 250 250 251 251 249 251 254 252 248 247 246 245 246 248 250 251 250 247 246 246 244 242 240 239 238 237 236 234 234 235 235 236 236 236 236 236 236 234 232 232 234 234 234 235 238 238 238 240 241 241 240 240 240 240 241 242 244 245 247
276 279 281 281 280 280 277 273 271 271 270 270 270 271 270 267 262 258 252 247 245 244 247 251 250 246 246 249 248 248 247 248 248 248 250 251 249 245 244 243 244 244 246 247 249 249 245 244 244 242 241 239 238 239 238 236 234 234 234 235 235 235 235 233 233 234 232 230 230 232 234 234 236 240 240 239 239 240 239 239 240 241 239 240 241 242 243 244
277 280 282 281 280 278 274 271 270 270 269 269 268 268 267 265 262 258 253 248 244 242 243 246 247 244 242 243 245 246 246 247 248 247 248 248 245 243 241 240 241 242 242 244 247 246 243 243 243 241 238 237 237 237 235 234 234 233 232 233 233 233 232 230 230 231 230 229 229 231 233 235 237 240 240 238 237 237 237 237 239 240 239 239 239 240 241 243
278 281 282 280 278 276 271 269 269 268 268 268 266 265 265 264 259 253 250 248 245 242 242 245 246 245 244 243 245 247 247 248 249 247 246 246 242 241 240 238 238 239 240 242 244 244 242 242 241 240 238 236 235 234 232 231 231 229 229 231 232 231 231 229 229 230 229 228 228 229 232 232 234 236 237 236 234 235 236 236 237 238 240 240 240 241 242 241
279 282 282 280 277 272 268 267 268 267 267 266 265 263 262 262 257 248 245 246 246 244 244 245 245 245 245 244 245 247 248 248 248 245 245 244 241 240 240 237 236 238 239 241 243 243 242 242 242 241 239 238 236 235 234 232 230 227 226 228 229 230 230 229 228 228 228 228 228 229 231 232 234 235 236 234 232 232 233 233 236 238 238 238 239 240 240 240
280 283 282 279 274 268 266 266 267 266 266 265 263 262 260 258 254 248 245 246 246 245 244 245 245 245 245 245 246 248 248 248 246 243 242 244 242 239 239 236 235 236 237 239 241 241 240 242 242 241 239 237 235 234 234 232 229 227 226 226 226 227 227 228 227 225 225 227 228 229 230 231 233 234 233 232 229 229 229 227 231 236 234 234 237 238 237 237
282 284 282 277 270 264 264 265 265 265 264 263 262 261 258 254 251 250 249 247 246 246 246 247 247 247 247 247 248 249 249 248 245 241 240 243 243 239 237 236 233 234 237 238 239 239 238 240 240 238 237 234 232 231 232 231 229 228 227 227 228 227 227 227 226 224 224 226 227 229 228 226 228 229 229 229 229 229 227 221 222 228 231 233 236 236 235 235
283 283 280 273 265 263 263 264 264 264 263 262 261 259 256 253 252 252 251 250 250 249 250 249 248 248 248 248 248 248 249 248 245 241 237 240 244 240 236 234 232 233 236 236 238 237 237 239 240 239 239 236 233 232 232 232 231 229 228 229 230 229 229 229 229 227 226 227 228 229 228 224 225 227 227 227 227 227 227 224 223 228 232 232 232 232 233 233
283 281 275 267 263 262 262 263 263 264 263 262 260 257 256 254 253 253 252 252 252 251 250 248 245 245 246 246 245 244 245 245 244 241 235 234 241 241 236 234 232 233 235 235 236 237 237 240 242 241 241 240 236 235 234 233 231 229 227 228 227 226 226 227 229 228 227 227 228 229 228 224 224 226 226 227 227 226 227 227 227 228 231 231 230 230 231 231
281 275 268 263 263 263 262 263 264 265 265 263 260 258 257 256 254 253 253 254 253 251 249 247 244 242 242 242 242 241 242 242 242 242 237 232 237 240 237 234 232 232 234 233 233 235 238 241 242 241 243 242 239 238 236 234 231 228 226 227 226 225 224 224 225 226 227 227 227 228 226 223 222 224 226 227 227 226 226 228 227 226 229 232 231 230 231 231
275 268 264 263 263 263 264 266 266 266 265 262 260 258 257 255 254 253 253 253 253 252 250 248 245 243 240 239 239 240 241 241 242 244 241 234 235 239 238 234 232 231 231 232 231 231 234 237 237 238 241 242 240 238 236 234 231 230 227 225 225 224 223 223 223 223 225 226 226 226 225 222 221 221 223 224 224 224 224 226 228 230 233 234 233 233 232 229
266 264 265 265 265 266 266 267 267 266 265 262 260 258 256 254 253 252 251 251 252 251 249 248 246 243 240 238 237 237 238 239 241 245 246 241 236 237 237 234 232 232 231 231 231 229 232 235 234 233 236 239 238 237 236 234 232 231 230 229 227 225 223 223 223 225 226 226 226 226 225 222 221 220 221 222 222 223 223 227 238 245 244 241 239 237 233 229
264 264 266 268 270 270 270 269 268 266 264 262 260 259 257 255 253 251 250 250 251 250 249 248 246 244 240 237 236 237 236 237 239 242 247 246 240 237 238 235 232 231 230 230 231 230 231 235 236 233 233 236 236 235 235 234 233 232 233 233 233 231 227 224 224 225 227 229 228 227 224 221 220 221 221 222 222 221 218 216 228 244 249 247 243 240 236 234
267 267 268 270 271 272 272 271 270 268 266 264 261 259 257 255 254 251 250 248 247 246 245 244 244 243 241 238 236 237 236 236 236 238 242 245 243 239 237 237 235 233 231 229 229 229 231 234 236 235 234 235 236 235 234 233 232 231 231 232 232 231 229 226 225 225 227 228 229 228 225 222 221 222 223 223 222 219 213 206 211 230 245 247 243 239 238 236
272 272 273 274 273 273 273 272 271 270 268 266 263 260 256 254 252 250 249 247 246 244 244 243 242 241 240 239 238 238 238 238 237 237 237 240 241 237 234 235 236 235 234 233 230 230 230 232 234 235 235 236 236 235 234 233 232 231 229 228 229 229 227 226 225 225 226 227 228 228 226 224 225 224 224 224 218 212 207 202 206 226 239 241 239 237 237 237
275 276 276 276 276 276 275 274 272 270 268 267 264 261 257 254 252 250 248 247 247 247 246 246 246 244 241 239 239 238 238 239 239 238 237 237 238 237 234 234 236 236 236 236 234 232 231 232 235 236 237 237 238 237 236 235 233 231 229 226 226 228 228 227 225 224 225 225 225 226 225 224 225 224 223 219 209 204 204 200 205 226 235 237 239 239 238 237
278 278 278 278 278 279 278 277 275 272 269 267 264 261 258 254 252 251 248 246 246 246 246 246 246 246 243 239 238 238 238 239 239 238 237 237 238 237 234 234 236 237 237 238 238 236 234 234 236 238 238 238 238 236 235 236 235 232 230 227 226 227 228 227 226 224 224 223 222 223 223 224 225 223 220 212 197 195 203 202 204 223 234 237 240 243 241 238
280 281 281 282 282 282 281 280 278 274 270 267 264 262 260 256 253 252 250 247 246 245 244 244 243 243 242 240 238 238 238 238 239 240 238 237 237 236 234 233 235 236 238 239 239 238 237 235 235 237 239 239 238 234 231 232 233 232 231 229 227 228 228 227 226 224 222 222 221 221 221 224 226 224 218 209 196 193 201 204 205 215 226 234 240 244 244 240
282 283 285 286 286 286 285 283 280 277 272 267 263 260 259 257 255 253 252 248 245 243 241 240 239 236 235 236 237 237 236 235 237 239 239 237 237 236 235 233 232 232 234 236 237 238 238 237 236 237 239 238 238 237 234 233 233 232 231 230 229 228 228 229 229 226 223 219 217 218 219 222 225 224 219 211 203 199 200 205 212 219 224 232 240 244 242 240
284 286 287 289 289 289 289 288 285 281 276 270 264 260 258 256 255 253 251 246 241 239 238 237 236 233 231 230 232 234 234 232 233 235 237 236 235 234 234 233 231 229 229 230 233 236 237 237 237 238 240 240 239 239 237 235 234 232 230 230 230 229 228 229 230 229 227 223 218 217 219 221 223 221 217 214 210 204 200 205 213 221 226 230 237 241 241 239
289 291 292 294 295 295 295 293 290 285 280 274 268 262 258 255 253 250 247 243 240 238 237 235 234 233 231 230 230 231 231 230 230 231 233 233 232 231 232 232 231 230 228 228 229 231 233 235 237 238 239 240 239 238 236 235 235 232 230 229 229 228 228 229 229 229 229 228 225 222 221 222 223 220 215 213 212 207 204 207 212 218 226 232 235 238 239 239
297 299 300 302 303 303 301 298 296 292 286 279 273 266 259 254 251 248 245 242 239 238 235 233 231 231 231 230 230 230 230 229 229 229 230 230 229 229 228 229 230 230 230 229 229 229 231 233 235 236 237 238 238 237 235 235 236 234 230 229 230 230 229 229 229 228 228 230 230 228 225 224 224 222 216 213 213 210 208 209 213 219 227 233 235 235 235 235
303 305 307 308 308 307 307 308 306 302 295 286 278 271 264 257 250 246 244 242 239 237 234 232 230 229 229 229 230 230 230 230 230 230 230 229 228 227 227 226 226 227 229 230 231 231 230 230 232 234 236 238 238 238 236 234 235 234 230 227 230 232 233 233 232 230 228 230 232 231 229 227 225 224 219 213 212 212 211 212 216 222 227 232 234 234 234 233
307 309 310 310 312 314 315 314 311 307 302 293 284 276 268 260 251 244 241 239 239 237 234 231 230 231 231 231 231 229 229 230 230 230 231 230 229 229 227 226 224 223 225 227 229 229 228 227 226 229 234 236 235 235 234 232 232 233 231 226 227 230 233 234 235 234 231 230 231 232 230 227 226 226 224 220 215 213 212 213 219 223 227 233 235 235 237 237
309 310 312 315 318 320 319 318 316 314 311 304 296 286 275 263 252 244 239 235 234 232 229 226 225 227 230 232 233 232 231 231 231 231 231 231 230 230 230 228 226 223 222 224 226 227 227 226 225 225 227 230 230 230 231 230 230 234 234 230 226 227 231 232 234 235 235 234 234 235 233 230 226 226 227 226 224 220 217 217 220 223 226 232 237 238 239 239
Height
10675 10675 10676 10676 10677 10677 10678 10679 10679 10680 10681 10682 10682 10683 10684 10684 10685 10686 10686 10687 10688 10689 10690 10690 10691 10692 10693 10693 10694 10695 10695 10695 10695 10696 10698 10699 10700 10701 10703 10704 10704 10704 10706 10708 10709 10709 10710 10712 10714 10717 10720 10720 10721 10723 10726 10730 10733 10740 10747 10750 10748 10741 10733 10723 10719 10729 10738 10740 10743 10746 10749 10753 10756 10759 10768 10778 10782 10783 10782 10774 10768 10770 10775 10781 10784 10786 10793 10796
10668 10668 10669 10669 10669 10670 10670 10671 10672 10672 10673 10674 10674 10675 10676 10677 10677 10678 10679 10679 10680 10681 10682 10682 10683 10684 10685 10686 10686 10687 10687 10687 10686 10688 10690 10690 10692 10693 10694 10696 10697 10696 10698 10699 10700 10701 10702 10705 10707 10709 10711 10711 10712 10715 10719 10722 10726 10733 10738 10742 10739 10727 10718 10713 10715 10725 10731 10733 10738 10742 10743 10747 10749 10751 10761 10771 10775 10776 10772 10763 10760 10764 10768 10774 10776 10779 10786 10789
10660 10661 10661 10662 10662 10662 10663 10663 10664 10665 10665 10666 10667 10667 10668 10669 10669 10670 10671 10671 10672 10673 10673 10674 10675 10676 10677 10678 10678 10678 10678 10678 10678 10680 10682 10682 10684 10685 10686 10687 10689 10689 10690 10691 10691 10693 10695 10698 10699 10700 10702 10703 10704 10707 10711 10713 10719 10725 10729 10734 10727 10713 10709 10709 10710 10717 10725 10731 10734 10735 10736 10740 10742 10744 10754 10763 10765 10764 10761 10753 10754 10759 10763 10768 10770 10772 10777 10780
10653 10653 10654 10654 10655 10655 10655 10656 10656 10657 10657 10658 10659 10660 10660 10661 10662 10663 10663 10664 10664 10665 10665 10666 10667 10668 10669 10669 10669 10670 10670 10670 10669 10671 10673 10674 10675 10677 10678 10678 10680 10681 10682 10683 10683 10685 10688 10690 10691 10692 10695 10695 10695 10700 10703 10705 10710 10716 10722 10725 10713 10704 10704 10701 10702 10712 10721 10726 10727 10728 10729 10732 10735 10737 10745 10753 10754 10753 10752 10746 10748 10755 10758 10761 10764 10766 10769 10770
10645 10645 10646 10647 10647 10647 10647 10648 10648 10649 10650 10650 10651 10651 10652 10653 10653 10654 10655 10656 10656 10657 10657 10658 10659 10660 10661 10661 10661 10662 10662 10661 10661 10663 10665 10666 10667 10668 10670 10671 10671 10672 10673 10674 10676 10678 10679 10681 10683 10684 10685 10685 10688 10692 10693 10695 10702 10708 10715 10714 10703 10699 10697 10691 10697 10707 10714 10719 10722 10723 10723 10726 10728 10730 10736 10743 10746 10746 10744 10741 10743 10749 10753 10754 10756 10758 10760 10762
10637 10638 10638 10639 10639 10639 10639 10640 10640 10641 10641 10642 10642 10643 10644 10644 10645 10646 10647 10647 10648 10649 10649 10650 10651 10652 10654 10654 10653 10654 10654 10653 10653 10655 10656 10657 10659 10660 10661 10662 10663 10664 10665 10666 10667 10668 10670 10673 10674 10675 10675 10676 10680 10683 10683 10687 10695 10701 10705 10703 10695 10692 10687 10683 10693 10701 10706 10713 10716 10717 10718 10719 10720 10722 10726 10732 10739 10739 10736 10738 10740 10742 10746 10748 10748 10750 10753 10755
10629 10630 10630 10630 10631 10631 10631 10632 10632 10632 10633 10633 10634 10634 10635 10636 10637 10638 10639 10640 10640 10641 10641 10642 10643 10645 10646 10646 10645 10645 10646 10646 10646 10647 10648 10649 10650 10651 10652 10653 10655 10656 10657 10657 10658 10659 10661 10664 10664 10665 10667 10668 10671 10673 10674 10679 10688 10693 10695 10694 10687 10683 10677 10677 10689 10694 10699 10706 10709 10711 10712 10713 10714 10715 10717 10721 10729 10731 10731 10736 10736 10736 10739 10740 10741 10742 10745 10748
10621 10621 10622 10622 10623 10623 10623 10623 10623 10624 10624 10625 10625 10626 10627 10628 10629 10630 10631 10632 10633 10634 10634 10635 10636 10637 10638 10638 10637 10637 10638 10639 10639 10639 10639 10641 10642 10643 10645 10646 10646 10647 10647 10648 10649 10651 10652 10653 10654 10657 10658 10659 10661 10664 10666 10672 10681 10684 10684 10683 10677 10674 10669 10671 10683 10687 10692 10699 10701 10704 10704 10706 10707 10707 10708 10714 10721 10723 10728 10731 10729 10729 10730 10731 10733 10735 10737 10741
10613 10613 10614 10614 10614 10615 10615 10615 10615 10616 10616 10616 10617 10618 10619 10620 10621 10622 10623 10625 10626 10626 10627 10627 10629 10630 10631 10631 10630 10629 10631 10632 10632 10632 10632 10632 10633 10635 10637 10637 10637 10638 10639 10639 10641 10642 10642 10644 10645 10649 10650 10650 10654 10656 10658 10664 10671 10672 10671 10671 10669 10667 10662 10666 10677 10681 10684 10690 10694 10697 10698 10698 10699 10698 10700 10708 10714 10715 10721 10724 10720 10722 10722 10723 10726 10727 10730 10733
10605 10606 10606 10606 10607 10607 10607 10607 10607 10608 10608 10608 10608 10609 10610 10611 10613 10614 10616 10617 10618 10619 10619 10620 10621 10622 10623 10623 10622 10622 10624 10625 10624 10624 10624 10625 10625 10627 10628 10628 10628 10629 10630 10631 10632 10633 10634 10636 10637 10640 10642 10642 10645 10646 10649 10654 10657 10660 10662 10663 10663 10661 10657 10661 10669 10674 10676 10681 10687 10691 10691 10691 10689 10690 10694 10700 10707 10708 10714 10718 10714 10715 10715 10716 10718 10718 10721 10724
10598 10598 10599 10599 10599 10599 10600 10600 10600 10600 10600 10600 10601 10601 10602 10603 10605 10606 10608 10610 10611 10612 10612 10613 10614 10615 10614 10614 10615 10615 10616 10616 10616 10617 10617 10617 10618 10619 10620 10620 10620 10621 10622 10623 10624 10625 10625 10627 10629 10633 10634 10632 10635 10637 10641 10644 10646 10651 10655 10657 10657 10653 10650 10654 10660 10664 10668 10674 10680 10681 10683 10683 10679 10681 10686 10689 10699 10703 10707 10711 10709 10708 10708 10709 10709 10710 10713 10715
10591 10591 10591 10592 10592 10592 10592 10593 10593 10593 10593 10593 10593 10594 10595 10595 10596 10598 10600 10602 10603 10604 10604 10606 10607 10607 10606 10606 10607 10609 10609 10608 10609 10610 10609 10610 10610 10611 10613 10612 10612 10613 10614 10615 10616 10617 10618 10619 10621 10624 10624 10624 10626 10628 10631 10634 10637 10643 10646 10649 10647 10643 10644 10648 10651 10655 10660 10667 10670 10672 10675 10673 10668 10672 10677 10680 10692 10699 10700 10703 10704 10702 10699 10700 10701 10701 10703 10707
10584 10584 10584 10585 10585 10585 10585 10585 10585 10585 10585 10585 10586 10586 10587 10588 10589 10590 10592 10594 10595 10596 10597 10598 10598 10599 10597 10597 10600 10601 10602 10602 10601 10602 10602 10602 10602 10604 10606 10604 10604 10606 10606 10608 10608 10608 10610 10611 10613 10615 10615 10617 10618 10619 10622 10625 10630 10633 10636 10640 10637 10636 10639 10640 10642 10646 10652 10658 10659 10663 10669 10663 10658 10665 10669 10671 10685 10694 10695 10696 10698 10696 10691 10689 10690 10692 10696 10702
10577 10577 10577 10577 10577 10578 10578 10578 10578 10578 10578 10578 10578 10579 10579 10580 10581 10582 10584 10586 10587 10588 10589 10590 10590 10590 10588 10589 10593 10593 10594 10595 10593 10594 10595 10594 10594 10597 10598 10596 10597 10598 10598 10599 10600 10600 10601 10603 10605 10606 10607 10609 10610 10611 10613 10617 10622 10624 10627 10632 10629 10630 10632 10630 10633 10639 10643 10647 10648 10655 10662 10656 10652 10657 10660 10662 10676 10688 10690 10690 10691 10689 10682 10676 10679 10685 10691 10699
10569 10569 10570 10570 10570 10570 10570 10570 10570 10570 10570 10570 10570 10571 10571 10572 10573 10575 10577 10577 10579 10580 10582 10583 10582 10581 10580 10581 10585 10585 10586 10588 10587 10588 10588 10586 10586 10588 10592 10591 10589 10590 10590 10591 10592 10593 10594 10595 10598 10598 10600 10602 10602 10604 10606 10610 10614 10615 10619 10622 10621 10624 10623 10620 10625 10631 10633 10636 10640 10649 10656 10651 10647 10649 10649 10654 10668 10682 10684 10682 10683 10682 10673 10666 10670 10679 10688 10696
10562 10562 10562 10562 10562 10562 10563 10563 10563 10562 10562 10562 10562 10563 10563 10564 10565 10567 10569 10569 10571 10572 10574 10575 10573 10574 10573 10572 10576 10578 10578 10580 10580 10581 10580 10580 10580 10581 10584 10584 10582 10582 10583 10584 10585 10586 10586 10588 10590 10591 10593 10594 10595 10596 10599 10603 10605 10606 10609 10611 10612 10614 10613 10612 10618 10623 10625 10629 10635 10644 10649 10646 10643 10640 10640 10647 10660 10672 10678 10676 10675 10674 10665 10659 10664 10673 10684 10694
10555 10555 10555 10556 10555 10555 10555 10555 10555 10554 10554 10554 10553 10554 10555 10555 10556 10559 10561 10561 10562 10563 10565 10566 10565 10566 10565 10564 10568 10571 10571 10572 10573 10574 10574 10574 10574 10574 10575 10576 10575 10575 10576 10577 10578 10579 10580 10581 10582 10584 10586 10587 10587 10589 10593 10595 10594 10595 10598 10600 10604 10608 10608 10609 10613 10615 10619 10624 10630 10637 10640 10639 10637 10632 10632 10643 10653 10662 10670 10669 10667 10665 10657 10655 10662 10669 10680 10690
10548 10548 10549 10548 10548 10547 10547 10547 10546 10545 10545 10545 10545 10545 10546 10547 10548 10550 10552 10553 10553 10554 10556 10557 10558 10559 10557 10556 10561 10564 10564 10564 10565 10567 10567 10568 10569 10568 10568 10568 10568 10569 10569 10570 10571 10572 10574 10575 10576 10577 10578 10579 10580 10583 10585 10584 10583 10586 10591 10596 10602 10606 10607 10606 10605 10608 10614 10618 10623 10629 10631 10631 10630 10625 10627 10638 10646 10652 10660 10661 10659 10656 10652 10655 10663 10667 10674 10682
10541 10541 10541 10541 10540 10539 10539 10538 10537 10537 10536 10536 10536 10536 10536 10538 10540 10541 10543 10545 10545 10544 10547 10550 10551 10550 10549 10550 10553 10555 10556 10557 10558 10559 10560 10561 10562 10563 10561 10561 10562 10562 10562 10562 10564 10567 10568 10568 10569 10569 10569 10570 10573 10576 10577 10575 10578 10585 10589 10594 10599 10601 10602 10598 10596 10602 10607 10611 10616 10621 10623 10623 10624 10622 10624 10633 10639 10643 10649 10653 10652 10650 10650 10656 10663 10665 10666 10670
10534 10534 10534 10533 10532 10531 10530 10529 10528 10528 10527 10526 10527 10527 10527 10530 10532 10533 10536 10537 10535 10536 10539 10541 10543 10541 10540 10543 10545 10547 10549 10550 10550 10551 10553 10555 10556 10556 10555 10555 10555 10556 10556 10556 10558 10561 10561 10561 10561 10560 10562 10565 10569 10571 10570 10570 10576 10582 10586 10590 10593 10593 10591 10587 10588 10594 10598 10605 10611 10614 10616 10617 10621 10621 10621 10626 10631 10634 10639 10644 10646 10646 10650 10657 10662 10660 10656 10658
10527 10527 10526 10525 10524 10523 10522 10521 10520 10519 10518 10517 10518 10519 10519 10521 10523 10525 10528 10528 10526 10528 10530 10532 10534 10531 10530 10536 10538 10539 10542 10541 10542 10543 10545 10548 10549 10549 10549 10549 10549 10548 10550 10551 10553 10554 10554 10554 10553 10555 10558 10561 10564 10565 10565 10567 10572 10578 10581 10583 10584 10582 10580 10579 10583 10588 10593 10602 10606 10608 10611 10613 10616 10617 10617 10619 10622 10626 10630 10636 10641 10644 10650 10655 10656 10652 10648 10650
10520 10519 10518 10517 10516 10514 10513 10512 10511 10510 10510 10509 10510 10510 10511 10512 10514 10516 10520 10521 10516 10518 10522 10522 10524 10522 10522 10528 10530 10532 10535 10533 10533 10536 10538 10540 10541 10542 10543 10543 10542 10542 10544 10546 10546 10547 10547 10547 10549 10552 10555 10557 10558 10560 10561 10563 10568 10572 10574 10574 10573 10571 10572 10575 10581 10585 10591 10599 10600 10602 10607 10608 10609 10611 10611 10611 10614 10619 10624 10632 10639 10642 10647 10649 10647 10644 10643 10646
10512 10511 10510 10509 10508 10506 10504 10504 10503 10502 10502 10501 10502 10502 10503 10504 10506 10508 10512 10512 10506 10508 10513 10513 10516 10516 10513 10517 10523 10527 10527 10525 10526 10529 10532 10532 10532 10536 10538 10536 10536 10537 10539 10540 10540 10541 10542 10542 10545 10548 10549 10551 10552 10554 10556 10558 10562 10565 10566 10565 10563 10565 10568 10573 10579 10581 10587 10594 10595 10597 10602 10604 10604 10602 10603 10605 10607 10615 10622 10629 10635 10637 10641 10641 10639 10638 10639 10642
10504 10504 10503 10501 10500 10497 10495 10496 10495 10495 10494 10494 10494 10495 10496 10497 10499 10501 10503 10505 10501 10499 10504 10507 10511 10509 10503 10508 10518 10520 10518 10517 10520 10523 10525 10525 10526 10530 10531 10528 10530 10533 10533 10534 10535 10535 10537 10539 10541 10542 10543 10545 10547 10548 10550 10552 10555 10557 10558 10557 10557 10561 10565 10569 10574 10577 10581 10587 10590 10592 10596 10599 10599 10594 10594 10599 10603 10613 10621 10625 10628 10630 10633 10634 10633 10634 10635 10636
10496 10496 10495 10493 10491 10489 10488 10488 10488 10488 10486 10486 10487 10489 10489 10489 10492 10494 10495 10498 10497 10491 10494 10502 10503 10498 10497 10503 10509 10510 10511 10512 10514 10517 10519 10519 10520 10523 10524 10523 10526 10527 10528 10530 10530 10530 10533 10534 10535 10537 10538 10539 10541 10542 10544 10546 10549 10550 10551 10551 10553 10557 10560 10564 10569 10572 10576 10582 10585 10587 10588 10591 10592 10586 10586 10594 10601 10610 10617 10620 10622 10623 10625 10628 10629 10629 10630 10630
10488 10488 10488 10486 10483 10481 10481 10481 10481 10481 10479 10478 10481 10482 10483 10484 10486 10487 10487 10491 10491 10483 10486 10495 10495 10492 10493 10496 10500 10504 10506 10505 10507 10512 10512 10511 10514 10517 10518 10519 10520 10522 10523 10525 10525 10524 10528 10529 10530 10531 10533 10534 10535 10537 10538 10540 10543 10544 10545 10546 10548 10552 10556 10560 10565 10568 10573 10578 10580 10582 10581 10583 10584 10581 10582 10591 10599 10605 10612 10615 10615 10616 10620 10623 10624 10623 10624 10624
10481 10481 10481 10478 10474 10474 10475 10474 10474 10475 10473 10472 10474 10476 10477 10479 10480 10480 10482 10484 10483 10479 10480 10485 10487 10487 10486 10489 10495 10497 10498 10498 10502 10506 10503 10504 10511 10513 10512 10513 10515 10516 10519 10521 10519 10519 10524 10525 10524 10526 10528 10529 10530 10530 10531 10535 10538 10539 10540 10542 10544 10548 10552 10555 10560 10564 10569 10573 10576 10576 10575 10576 10577 10576 10580 10589 10595 10599 10605 10608 10609 10611 10615 10617 10618 10618 10619 10620
10473 10474 10474 10471 10467 10467 10468 10468 10468 10468 10467 10467 10468 10471 10473 10473 10473 10474 10477 10477 10476 10475 10476 10476 10480 10483 10481 10484 10489 10489 10491 10493 10495 10498 10498 10500 10506 10507 10507 10507 10509 10512 10515 10516 10514 10514 10520 10520 10519 10521 10523 10524 10524 10524 10527 10532 10534 10533 10536 10538 10540 10544 10548 10552 10556 10560 10565 10569 10570 10570 10569 10571 10570 10571 10578 10586 10591 10595 10599 10601 10602 10606 10610 10612 10613 10615 10616 10617
10466 10467 10467 10464 10460 10461 10462 10461 10462 10462 10462 10462 10463 10465 10467 10466 10466 10469 10471 10470 10469 10471 10471 10469 10472 10476 10476 10479 10481 10482 10485 10486 10488 10494 10495 10496 10499 10501 10501 10502 10505 10509 10511 10511 10508 10510 10515 10514 10515 10517 10518 10518 10519 10520 10525 10528 10528 10530 10533 10534 10536 10540 10544 10549 10551 10554 10559 10563 10564 10564 10564 10566 10567 10569 10577 10584 10589 10591 10593 10594 10596 10601 10605 10607 10610 10611 10611 10612
10460 10460 10460 10458 10455 10454 10455 10455 10456 10457 10456 10457 10458 10459 10460 10460 10461 10464 10464 10463 10463 10464 10463 10462 10465 10468 10471 10473 10474 10475 10479 10480 10483 10490 10490 10490 10494 10495 10495 10498 10501 10504 10506 10505 10504 10506 10509 10510 10511 10512 10512 10513 10514 10517 10521 10522 10523 10527 10530 10529 10532 10536 10539 10544 10546 10549 10554 10557 10558 10559 10560 10563 10565 10567 10574 10581 10584 10585 10586 10588 10591 10595 10599 10602 10605 10606 10607 10608
10453 10453 10452 10451 10449 10448 10448 10449 10450 10451 10451 10452 10453 10454 10454 10455 10457 10458 10456 10454 10455 10457 10456 10457 10460 10463 10466 10469 10469 10470 10474 10476 10479 10484 10484 10485 10488 10489 10490 10494 10496 10498 10501 10500 10499 10502 10505 10507 10507 10507 10508 10509 10511 10514 10515 10516 10519 10523 10524 10525 10527 10531 10535 10539 10542 10546 10550 10551 10552 10554 10556 10560 10562 10565 10571 10576 10579 10580 10581 10584 10587 10590 10594 10597 10599 10601 10602 10604
10445 10445 10445 10444 10443 10442 10442 10443 10445 10446 10447 10447 10448 10449 10449 10450 10452 10450 10447 10447 10448 10449 10451 10453 10456 10458 10461 10464 10465 10466 10469 10472 10475 10478 10479 10479 10482 10484 10486 10489 10491 10494 10496 10495 10495 10499 10502 10503 10503 10503 10505 10506 10508 10510 10511 10512 10515 10517 10520 10521 10524 10527 10531 10535 10539 10543 10545 10545 10547 10550 10552 10556 10559 10563 10568 10571 10574 10574 10576 10581 10585 10587 10590 10592 10593 10595 10597 10598
10438 10438 10437 10437 10437 10436 10436 10438 10439 10441 10442 10442 10442 10443 10444 10445 10444 10441 10440 10440 10441 10442 10445 10448 10451 10454 10456 10459 10461 10462 10465 10467 10470 10473 10474 10474 10476 10479 10481 10483 10487 10489 10489 10491 10493 10496 10498 10499 10499 10500 10501 10502 10505 10505 10506 10507 10510 10513 10516 10518 10520 10523 10527 10531 10534 10538 10539 10540 10543 10546 10550 10554 10558 10561 10563 10566 10569 10570 10573 10578 10581 10583 10585 10586 10588 10590 10592 10593
10431 10431 10430 10429 10430 10431 10431 10432 10433 10435 10436 10436 10436 10437 10438 10438 10435 10434 10435 10434 10433 10436 10440 10444 10448 10451 10453 10455 10457 10458 10460 10462 10464 10468 10470 10470 10471 10474 10476 10478 10481 10483 10485 10488 10490 10492 10495 10494 10494 10495 10496 10498 10500 10500 10501 10503 10506 10509 10512 10514 10516 10519 10523 10526 10529 10532 10534 10536 10539 10542 10547 10552 10554 10556 10559 10561 10564 10567 10570 10573 10575 10577 10579 10582 10585 10586 10587 10588
10425 10424 10423 10423 10424 10426 10426 10426 10427 10429 10430 10431 10431 10431 10431 10430 10429 10429 10429 10427 10428 10432 10437 10441 10445 10446 10448 10450 10452 10454 10454 10455 10458 10461 10465 10467 10465 10467 10470 10472 10476 10479 10481 10484 10486 10488 10490 10490 10490 10492 10494 10495 10496 10496 10498 10500 10503 10507 10509 10511 10513 10517 10520 10522 10525 10529 10531 10533 10536 10539 10544 10549 10551 10552 10554 10557 10560 10563 10566 10568 10571 10573 10576 10578 10580 10581 10582 10583
10418 10417 10416 10417 10419 10420 10420 10420 10421 10423 10424 10425 10425 10425 10424 10424 10424 10424 10423 10421 10423 10428 10432 10436 10438 10439 10441 10443 10445 10447 10447 10448 10451 10453 10459 10462 10460 10461 10465 10468 10472 10476 10478 10481 10483 10484 10486 10487 10487 10490 10491 10492 10493 10494 10495 10498 10500 10503 10505 10506 10509 10513 10516 10518 10522 10525 10527 10530 10532 10536 10541 10545 10548 10550 10551 10554 10556 10559 10561 10564 10567 10570 10572 10574 10575 10577 10578 10579
10412 10411 10410 10411 10412 10413 10414 10415 10416 10417 10418 10418 10418 10418 10418 10418 10418 10418 10417 10416 10418 10423 10426 10429 10431 10432 10434 10436 10438 10439 10440 10443 10444 10445 10451 10456 10456 10456 10460 10464 10469 10472 10474 10477 10479 10481 10482 10483 10484 10486 10487 10487 10489 10491 10492 10494 10496 10498 10500 10503 10506 10509 10512 10515 10518 10521 10523 10526 10529 10533 10537 10542 10545 10547 10549 10551 10553 10555 10558 10561 10563 10566 10567 10569 10572 10574 10574 10575
10405 10405 10404 10405 10406 10407 10408 10409 10410 10410 10411 10411 10411 10412 10412 10412 10412 10412 10411 10410 10411 10416 10420 10422 10424 10426 10428 10430 10432 10433 10435 10438 10439 10439 10444 10450 10452 10454 10457 10461 10465 10467 10470 10472 10474 10477 10477 10478 10480 10482 10482 10483 10485 10487 10487 10490 10493 10495 10497 10499 10502 10505 10508 10511 10514 10516 10518 10521 10525 10529 10534 10538 10542 10544 10545 10547 10549 10551 10554 10558 10561 10563 10565 10567 10570 10571 10572 10572
10399 10400 10399 10399 10400 10401 10402 10403 10403 10403 10404 10403 10404 10405 10405 10404 10405 10405 10404 10403 10405 10409 10413 10414 10416 10419 10422 10425 10426 10427 10429 10433 10434 10435 10438 10444 10449 10451 10452 10456 10460 10463 10466 10468 10470 10473 10473 10473 10475 10477 10477 10478 10480 10481 10483 10487 10490 10492 10494 10496 10499 10502 10505 10508 10510 10513 10515 10517 10521 10526 10531 10536 10538 10539 10541 10543 10545 10549 10553 10558 10562 10564 10565 10567 10569 10569 10569 10569
10394 10395 10394 10393 10394 10394 10395 10396 10396 10396 10396 10396 10397 10397 10397 10397 10398 10397 10397 10398 10399 10403 10405 10407 10409 10411 10415 10419 10420 10421 10424 10427 10429 10431 10433 10437 10443 10447 10449 10451 10455 10458 10461 10464 10466 10468 10469 10470 10471 10472 10473 10473 10474 10477 10481 10484 10486 10489 10492 10495 10498 10501 10503 10505 10507 10509 10512 10515 10519 10524 10528 10532 10533 10534 10536 10539 10543 10547 10551 10556 10560 10563 10564 10565 10567 10567 10567 10568
10388 10389 10390 10389 10388 10388 10388 10388 10388 10388 10388 10388 10389 10390 10390 10390 10389 10389 10390 10391 10392 10394 10396 10398 10400 10403 10408 10413 10415 10416 10418 10420 10422 10426 10429 10432 10437 10442 10445 10448 10451 10454 10456 10460 10463 10464 10466 10466 10467 10468 10469 10469 10470 10474 10477 10480 10483 10486 10489 10492 10494 10497 10500 10502 10504 10506 10509 10513 10516 10521 10525 10528 10528 10530 10533 10537 10542 10546 10549 10551 10554 10557 10559 10559 10559 10560 10561 10562
10383 10384 10384 10383 10382 10382 10382 10381 10381 10381 10380 10380 10380 10381 10382 10382 10380 10379 10381 10382 10383 10386 10388 10390 10392 10396 10403 10408 10410 10412 10413 10413 10416 10422 10426 10427 10430 10435 10440 10443 10446 10449 10452 10456 10459 10461 10462 10462 10462 10464 10464 10465 10467 10470 10474 10477 10480 10482 10485 10488 10489 10492 10494 10497 10499 10502 10505 10509 10513 10517 10521 10523 10524 10527 10530 10535 10540 10543 10546 10547 10548 10550 10550 10550 10551 10551 10553 10554
10378 10378 10379 10377 10376 10375 10374 10374 10375 10374 10372 10371 10371 10371 10372 10372 10370 10370 10373 10375 10376 10381 10384 10384 10386 10392 10399 10403 10405 10406 10405 10407 10413 10418 10420 10422 10425 10429 10435 10439 10442 10445 10448 10452 10455 10457 10458 10458 10459 10459 10460 10461 10463 10467 10471 10473 10476 10478 10480 10483 10484 10487 10490 10492 10495 10498 10501 10506 10509 10513 10516 10518 10520 10523 10527 10532 10536 10540 10542 10542 10543 10544 10545 10546 10547 10548 10549 10550
10373 10372 10373 10372 10370 10369 10367 10366 10366 10366 10364 10363 10362 10361 10362 10361 10361 10362 10365 10368 10371 10375 10378 10378 10381 10388 10394 10397 10398 10397 10398 10402 10409 10413 10416 10419 10421 10425 10430 10434 10437 10441 10444 10447 10450 10452 10454 10455 10455 10455 10456 10458 10461 10465 10467 10469 10471 10474 10476 10478 10480 10482 10485 10488 10491 10494 10498 10502 10505 10508 10511 10513 10515 10519 10524 10527 10530 10534 10536 10536 10538 10541 10542 10543 10544 10545 10546 10546
10369 10367 10367 10366 10364 10362 10361 10359 10358 10357 10356 10355 10353 10353 10352 10352 10353 10354 10356 10361 10366 10369 10370 10371 10376 10383 10388 10391 10391 10390 10393 10399 10404 10407 10411 10415 10417 10422 10426 10430 10433 10436 10439 10442 10444 10446 10448 10450 10451 10452 10453 10455 10457 10460 10463 10464 10466 10469 10472 10474 10476 10478 10481 10483 10487 10491 10495 10498 10501 10503 10506 10508 10510 10515 10520 10523 10525 10527 10530 10532 10534 10535 10536 10537 10538 10539 10540 10542
10365 10363 10361 10360 10358 10356 10354 10352 10351 10349 10349 10348 10346 10345 10345 10344 10346 10348 10350 10356 10359 10360 10360 10364 10370 10375 10379 10382 10383 10382 10388 10395 10399 10400 10404 10409 10414 10418 10422 10425 10427 10431 10434 10436 10438 10441 10443 10446 10448 10449 10449 10451 10453 10455 10458 10460 10463 10466 10468 10469 10471 10474 10476 10479 10482 10486 10490 10493 10495 10498 10501 10503 10506 10511 10516 10519 10520 10521 10524 10527 10528 10528 10529 10531 10532 10533 10534 10536
10360 10359 10357 10355 10353 10351 10348 10346 10345 10343 10341 10340 10339 10339 10339 10339 10340 10342 10345 10348 10349 10349 10353 10358 10362 10366 10369 10372 10372 10374 10381 10389 10392 10393 10397 10403 10408 10412 10416 10419 10422 10425 10428 10431 10433 10436 10439 10441 10443 10445 10446 10448 10449 10451 10454 10456 10458 10461 10464 10465 10467 10470 10472 10475 10478 10481 10484 10487 10490 10492 10495 10497 10501 10505 10510 10514 10515 10517 10519 10520 10521 10522 10524 10525 10526 10527 10528 10530
10355 10353 10352 10350 10348 10346 10344 10341 10339 10337 10336 10334 10333 10333 10333 10334 10335 10336 10338 10340 10341 10343 10347 10352 10355 10358 10361 10363 10364 10367 10373 10379 10383 10386 10390 10395 10400 10405 10409 10412 10415 10419 10422 10425 10428 10430 10433 10435 10438 10440 10442 10444 10445 10447 10449 10451 10453 10456 10459 10461 10463 10465 10467 10470 10473 10476 10479 10482 10484 10487 10489 10492 10495 10499 10504 10508 10509 10512 10514 10515 10517 10520 10520 10520 10521 10522 10523 10525
10350 10348 10347 10345 10343 10341 10339 10337 10335 10333 10331 10329 10328 10327 10328 10329 10329 10330 10332 10333 10335 10338 10341 10345 10348 10351 10353 10354 10356 10360 10365 10370 10375 10379 10383 10388 10393 10397 10400 10404 10409 10414 10417 10420 10422 10424 10427 10430 10433 10436 10437 10438 10440 10442 10443 10445 10449 10451 10453 10456 10458 10459 10462 10465 10468 10471 10474 10477 10479 10482 10484 10487 10490 10494 10499 10504 10507 10508 10510 10513 10515 10516 10515 10514 10515 10516 10518 10519
10346 10344 10342 10340 10339 10337 10334 10332 10330 10328 10327 10325 10324 10323 10323 10324 10325 10326 10326 10328 10329 10332 10335 10338 10342 10344 10345 10346 10348 10353 10357 10362 10367 10372 10376 10380 10385 10388 10392 10396 10401 10406 10410 10413 10416 10419 10422 10425 10428 10430 10431 10433 10435 10436 10437 10440 10443 10445 10447 10450 10453 10455 10457 10459 10462 10465 10469 10471 10474 10477 10480 10483 10486 10489 10493 10498 10501 10503 10507 10511 10511 10510 10510 10509 10510 10511 10512 10514
10343 10341 10339 10336 10335 10333 10331 10329 10327 10325 10323 10321 10320 10319 10319 10320 10320 10321 10322 10323 10325 10327 10330 10334 10336 10338 10339 10340 10342 10346 10351 10355 10360 10364 10368 10373 10378 10381 10385 10388 10392 10398 10402 10405 10408 10412 10415 10419 10422 10424 10425 10427 10429 10430 10432 10433 10435 10436 10439 10443 10446 10448 10451 10453 10456 10460 10463 10466 10468 10471 10475 10478 10480 10482 10485 10491 10495 10498 10502 10504 10503 10504 10506 10505 10505 10506 10507 10508
10340 10338 10336 10334 10331 10330 10328 10326 10324 10322 10320 10319 10317 10316 10316 10316 10316 10317 10318 10319 10320 10322 10324 10327 10329 10332 10334 10336 10338 10342 10346 10349 10353 10358 10362 10367 10371 10374 10377 10381 10385 10390 10394 10396 10400 10405 10410 10414 10416 10417 10418 10420 10422 10424 10425 10425 10426 10428 10432 10436 10439 10441 10445 10448 10452 10455 10458 10461 10464 10466 10469 10471 10473 10476 10480 10485 10489 10492 10494 10495 10496 10499 10501 10500 10499 10500 10500 10501